Вернуться в каталог

SL-16 DEB

АктивенLEO
NORAD 22331·DEBRIS·🇷🇺 Russia

Запущен Dec 25, 1992 с Baikonur Cosmodrome

Loading…

Ближайшие Пролёты (ближайшие 24 часа)

TLE

СвежийSource: Space-Track

Эпоха: Sep 14, 2026, 12:11 UTC

1 22331U 92093U   26257.50775789  .00000003  00000-0  30096-4 0  9999
2 22331  70.9207 286.5355 0075616 160.6827 272.4360 14.05009811727624

Отслеживайте SL-16 DEB в реальном времени с AllMySat

Download on the App Store